User: anonymous   Login
Location: *
(51.5000°N, 0.1100°W)
Time: 09:38:27
(UTC+00:00)
Language:

CZ-2C R/B - Orbit

View from above orbital plane
View from above orbital plane
View from above satellite
View from above satellite

Ground track
Ground track

The orbit data is extracted from the following two-line orbital elements,

1 31114U 07010B   24198.22020752  .00000305  00000-0  16056-3 0  9991
2 31114  98.3362 332.5969 0058346 243.3773 116.1420 14.19812232894363
Epoch (UTC): 16 July 2024 05:17:05
Eccentricity: 0.0058346
inclination: 98.3362°
perigee height: 784 km
apogee height: 868 km
right ascension of ascending node: 332.5969°
argument of perigee: 243.3773°
revolutions per day: 14.19812232
mean anomaly at epoch: 116.1420°
orbit number at epoch: 89436

The dashed part of the orbit path shows where the satellite is in the earth's shadow,  

DLR